TimeCST,TemperatureF,Dew PointF,Humidity,Sea Level PressureIn,VisibilityMPH,Wind Direction,Wind SpeedMPH,Gust SpeedMPH,PrecipitationIn,Events,Conditions,WindDirDegrees,DateUTC
12:52 AM,36.0,33.1,89,29.99,10.0,Calm,Calm,-,N/A,,Scattered Clouds,0,2013-11-21 06:52:00
1:52 AM,33.1,30.9,92,30.03,8.0,NNW,5.8,-,N/A,,Scattered Clouds,340,2013-11-21 07:52:00
2:52 AM,34.0,32.0,92,30.06,7.0,North,9.2,-,N/A,,Mostly Cloudy,350,2013-11-21 08:52:00
3:05 AM,35.6,32.0,87,30.05,8.0,NNW,13.8,-,N/A,,Overcast,340,2013-11-21 09:05:00
3:52 AM,36.0,30.9,82,30.09,10.0,NNW,16.1,-,N/A,,Overcast,340,2013-11-21 09:52:00
4:52 AM,35.1,30.0,82,30.11,7.0,North,19.6,33.4,N/A,,Overcast,350,2013-11-21 10:52:00
5:52 AM,34.0,30.0,85,30.14,6.0,NNW,23.0,31.1,N/A,,Overcast,340,2013-11-21 11:52:00
6:52 AM,34.0,28.9,82,30.19,7.0,North,21.9,31.1,N/A,,Overcast,350,2013-11-21 12:52:00
7:43 AM,33.8,28.4,81,30.20,7.0,North,21.9,29.9,N/A,,Overcast,350,2013-11-21 13:43:00
7:52 AM,33.1,28.0,82,30.23,7.0,North,20.7,29.9,N/A,,Overcast,350,2013-11-21 13:52:00
8:52 AM,30.9,25.0,79,30.26,7.0,NNW,24.2,32.2,N/A,,Overcast,340,2013-11-21 14:52:00
9:45 AM,30.2,23.0,75,30.25,7.0,NNW,23.0,32.2,N/A,,Overcast,340,2013-11-21 15:45:00
9:52 AM,30.0,23.0,75,30.28,7.0,NNW,25.3,33.4,N/A,,Overcast,340,2013-11-21 15:52:00
10:52 AM,28.9,21.0,72,30.31,7.0,NNW,23.0,31.1,N/A,,Overcast,340,2013-11-21 16:52:00
11:33 AM,28.4,21.2,74,30.29,7.0,NNW,19.6,27.6,0.00,Rain,Light Freezing Rain,340,2013-11-21 17:33:00
11:52 AM,28.0,21.9,78,30.32,7.0,NNW,16.1,27.6,0.00,Rain-Snow,Light Freezing Rain,340,2013-11-21 17:52:00
12:18 PM,28.4,21.2,74,30.29,7.0,North,19.6,27.6,0.00,Rain,Light Freezing Rain,350,2013-11-21 18:18:00
12:52 PM,27.0,19.9,75,30.34,7.0,NNW,20.7,27.6,0.00,Rain,Light Freezing Rain,340,2013-11-21 18:52:00
1:52 PM,27.0,19.9,75,30.35,7.0,NNW,20.7,27.6,0.01,Rain-Snow,Light Freezing Rain,340,2013-11-21 19:52:00
2:26 PM,26.6,19.4,74,30.31,7.0,North,23.0,31.1,0.00,,Overcast,350,2013-11-21 20:26:00
2:52 PM,27.0,19.0,72,30.35,7.0,North,23.0,34.5,0.00,,Overcast,350,2013-11-21 20:52:00
3:52 PM,26.1,19.0,75,30.38,7.0,NNW,25.3,31.1,0.00,Snow,Light Snow,340,2013-11-21 21:52:00
4:20 PM,26.6,19.4,74,30.35,9.0,North,24.2,31.1,0.00,Snow,Light Snow,350,2013-11-21 22:20:00
4:52 PM,26.1,19.0,75,30.41,9.0,North,25.3,32.2,0.00,Snow,Light Snow,350,2013-11-21 22:52:00
5:52 PM,27.0,19.9,75,30.43,7.0,North,16.1,-,0.00,Snow,Light Snow,360,2013-11-21 23:52:00
6:34 PM,26.6,19.4,74,30.42,2.0,North,18.4,26.5,0.00,Snow,Light Snow,350,2013-11-22 00:34:00
6:52 PM,26.1,19.9,78,30.46,2.0,NNW,19.6,31.1,0.00,Snow,Light Snow,340,2013-11-22 00:52:00
7:08 PM,26.6,19.4,74,30.43,5.0,North,21.9,28.8,0.00,Snow,Light Snow,350,2013-11-22 01:08:00
7:35 PM,24.8,19.4,80,30.44,2.0,NNW,20.7,29.9,0.00,Snow,Light Snow,340,2013-11-22 01:35:00
7:52 PM,25.0,19.9,81,30.49,2.0,NNW,19.6,29.9,0.00,Snow,Light Snow,340,2013-11-22 01:52:00
8:09 PM,24.8,19.4,80,30.46,1.8,NNW,19.6,29.9,0.00,Snow,Light Snow,340,2013-11-22 02:09:00
8:50 PM,23.0,19.4,86,30.49,1.0,NNW,18.4,-,0.00,Snow,Light Snow,340,2013-11-22 02:50:00
8:52 PM,23.0,19.9,88,30.53,1.0,NNW,20.7,-,0.00,Snow,Light Snow,340,2013-11-22 02:52:00
9:10 PM,23.0,19.4,86,30.50,1.5,NNW,18.4,32.2,0.00,Snow,Light Snow,340,2013-11-22 03:10:00
9:39 PM,21.2,17.6,86,30.51,1.5,NNW,21.9,31.1,0.01,Snow,Light Snow,340,2013-11-22 03:39:00
9:46 PM,21.2,17.6,86,30.51,2.0,NNW,20.7,27.6,0.01,Snow,Light Snow,340,2013-11-22 03:46:00
9:52 PM,23.0,19.0,85,30.56,1.5,NNW,18.4,25.3,0.01,Snow,Light Snow,340,2013-11-22 03:52:00
9:59 PM,23.0,19.4,86,30.51,1.8,NNW,16.1,-,0.01,Snow,Light Snow,340,2013-11-22 03:59:00
10:22 PM,21.2,17.6,86,30.52,2.5,NNW,21.9,29.9,0.01,Snow,Light Snow,340,2013-11-22 04:22:00
10:39 PM,21.2,17.6,86,30.53,2.5,NNW,23.0,29.9,0.01,Snow,Light Snow,340,2013-11-22 04:39:00
10:43 PM,21.2,17.6,86,30.53,1.8,North,19.6,29.9,0.01,Snow,Light Snow,350,2013-11-22 04:43:00
10:52 PM,21.9,19.0,89,30.58,1.2,NNW,19.6,-,0.01,Snow,Light Snow,340,2013-11-22 04:52:00
11:03 PM,21.2,17.6,86,30.54,3.0,North,17.3,28.8,0.00,Snow,Light Snow,350,2013-11-22 05:03:00
11:30 PM,21.2,17.6,86,30.55,5.0,NNW,19.6,28.8,0.00,Snow,Light Snow,340,2013-11-22 05:30:00
11:52 PM,21.9,18.0,85,30.61,9.0,NNW,19.6,26.5,0.00,Snow,Light Snow,340,2013-11-22 05:52:00